Weather History for Frederick, OK

Change the Weather History Date:

Wednesday, October 23, 2013

  Actual Average (KLTS) Record (KLTS)
Temperature  
Mean Temperature 66 °F -  
Max Temperature 86 °F 70 °F 91 °F (2001)
Min Temperature 46 °F 48 °F 33 °F (1996)
Cooling Degree Days 1    
Growing Degree Days 16 (Base 50)    
Moisture  
Dew Point 37 °F    
Average Humidity 46    
Maximum Humidity 76    
Minimum Humidity 14    
Precipitation  
Precipitation 0.00 in - - ()
Sea Level Pressure  
Sea Level Pressure 30.02 in    
Wind  
Wind Speed 5 mph (WSW)    
Max Wind Speed 20 mph    
Max Gust Speed 30 mph    
Visibility 8 miles    
Events      
Averages and records for this station are not official NWS values.
T = Trace of Precipitation, MM = Missing Value Source: NWS Daily Summary

Daily Weather History Graph

Daily Weather History Graph

Search for Another Location

Airport:

Trip Planner

Search our weather history database for the weather conditions in past years. The results will help you decide how hot, cold, wet, or windy it might be!

Date:

Astronomy

Oct. 23, 2013 Rise Set
Actual Time 7:48 AM CDT 6:51 PM CDT
Civil Twilight 7:22 AM CDT 7:17 PM CDT
Nautical Twilight 6:53 AM CDT 7:46 PM CDT
Astronomical Twilight 6:24 AM CDT 8:15 PM CDT
Moon 10:30 PM CDT (10/23) 12:00 PM CDT (10/23)
Length of Visible Light 11h 54m
Length of Day
11h 03m
Waning Gibbous, 79% of the Moon is Illuminated
Oct 23
Waning Gibbous
Oct 26
Last Quarter
Nov 3
New
Nov 9
First Quarter
Nov 17
Full

Hourly Weather History & Observations

Time (CDT) Temp. Windchill Dew Point Humidity Pressure Visibility Wind Dir Wind Speed Gust Speed Precip Events Conditions
12:53 AM 51.1 °F - 39.9 °F 66% 30.04 in 3.0 mi Calm Calm - N/A   Haze
1:53 AM 52.0 °F - 37.9 °F 59% 30.04 in 10.0 mi NE 3.5 mph - N/A   Clear
2:53 AM 52.0 °F - 39.0 °F 61% 30.05 in 8.0 mi Calm Calm - N/A   Clear
3:53 AM 50.0 °F - 39.0 °F 66% 30.04 in 6.0 mi NW 4.6 mph - N/A   Haze
4:53 AM 51.1 °F - 39.0 °F 63% 30.04 in 10.0 mi North 6.9 mph - N/A   Clear
5:53 AM 51.1 °F - 39.0 °F 63% 30.04 in 10.0 mi NNE 11.5 mph - N/A   Clear
6:53 AM 48.0 °F - 39.0 °F 71% 30.06 in 10.0 mi NE 4.6 mph - N/A   Clear
7:26 AM 46.4 °F - 39.2 °F 76% 30.08 in 1.8 mi Calm Calm - N/A   Haze
7:37 AM 46.4 °F 44.3 °F 39.2 °F 76% 30.08 in 0.8 mi WSW 4.6 mph - N/A   Haze
7:49 AM 46.4 °F - 39.2 °F 76% 30.09 in 2.0 mi Calm Calm - N/A   Haze
7:53 AM 46.0 °F - 39.0 °F 76% 30.07 in 7.0 mi Calm Calm - N/A   Clear
8:53 AM 54.0 °F - 43.0 °F 66% 30.08 in 10.0 mi Calm Calm - N/A   Clear
9:53 AM 59.0 °F - 43.0 °F 55% 30.09 in 10.0 mi Variable 3.5 mph - N/A   Clear
10:53 AM 66.0 °F - 39.0 °F 37% 30.07 in 6.0 mi West 5.8 mph - N/A   Haze
11:53 AM 72.0 °F - 37.0 °F 28% 30.06 in 10.0 mi SW 8.1 mph - N/A   Clear
12:53 PM 78.1 °F - 36.0 °F 22% 30.03 in 10.0 mi West 11.5 mph - N/A   Clear
1:53 PM 82.9 °F - 34.0 °F 17% 29.99 in 10.0 mi SW 15.0 mph - N/A   Clear
2:53 PM 84.9 °F - 34.0 °F 16% 29.96 in 10.0 mi SW 17.3 mph 29.9 mph N/A   Clear
3:53 PM 86.0 °F - 32.0 °F 14% 29.95 in 10.0 mi SSW 17.3 mph 28.8 mph N/A   Clear
4:53 PM 84.9 °F - 32.0 °F 15% 29.94 in 10.0 mi SSW 19.6 mph - N/A   Clear
5:53 PM 82.9 °F - 30.9 °F 15% 29.93 in 10.0 mi SSW 16.1 mph 24.2 mph N/A   Clear
6:53 PM 75.0 °F - 33.1 °F 22% 29.95 in 10.0 mi SSW 9.2 mph - N/A   Clear
7:53 PM 66.0 °F - 35.1 °F 32% 29.97 in 10.0 mi South 9.2 mph - N/A   Clear
8:53 PM 64.0 °F - 36.0 °F 35% 29.97 in 10.0 mi SSW 9.2 mph - N/A   Clear
9:53 PM 61.0 °F - 37.0 °F 41% 29.97 in 10.0 mi SSW 8.1 mph - N/A   Clear
10:53 PM 59.0 °F - 37.0 °F 44% 29.98 in 10.0 mi WSW 8.1 mph - N/A   Clear
11:53 PM 59.0 °F - 36.0 °F 42% 30.01 in 10.0 mi West 8.1 mph - N/A   Clear